| time (UTC) | temp F | wind direction | speed MPH | gust MPH | rain 1hr in | rain 24hr in | rain mn in | humidity % | barometer mb |
| 20260502221830 | 73 | 333 | 3.0 | 9.0 | 0.00 | 0.01 | 0.01 | 47 | 1020.0 |
| 20260502220806 | 73 | 310 | 4.0 | 9.0 | 0.00 | 0.03 | 0.01 | 46 | 1020.1 |
| 20260502215742 | 73 | 300 | 4.0 | 9.0 | 0.00 | 0.04 | 0.01 | 48 | 1020.1 |
| 20260502214802 | 73 | 288 | 5.0 | 9.0 | 0.00 | 0.05 | 0.01 | 49 | 1020.2 |
| 20260502213751 | 73 | 35 | 3.0 | 8.0 | 0.00 | 0.05 | 0.01 | 51 | 1020.3 |
| 20260502212810 | 72 | 88 | 3.0 | 9.0 | 0.00 | 0.05 | 0.01 | 50 | 1020.4 |
| 20260502211757 | 71 | 337 | 6.0 | 10.0 | 0.00 | 0.05 | 0.01 | 55 | 1020.7 |
| 20260502210741 | 72 | 36 | 5.0 | 12.0 | 0.00 | 0.05 | 0.01 | 48 | 1020.7 |
| 20260502205708 | 73 | 327 | 5.0 | 12.0 | 0.00 | 0.05 | 0.01 | 50 | 1021.0 |
| 20260502204637 | 73 | 49 | 6.0 | 11.0 | 0.00 | 0.05 | 0.01 | 49 | 1021.1 |
| 20260502203655 | 73 | 338 | 4.0 | 12.0 | 0.00 | 0.05 | 0.01 | 49 | 1021.2 |
| 20260502202711 | 72 | 314 | 5.0 | 12.0 | 0.00 | 0.05 | 0.01 | 52 | 1021.2 |
| 20260502201710 | 72 | 336 | 7.0 | 11.0 | 0.00 | 0.05 | 0.01 | 47 | 1021.5 |
| 20260502200704 | 73 | 10 | 5.0 | 13.0 | 0.00 | 0.05 | 0.01 | 49 | 1021.5 |
| 20260502194538 | 72 | 302 | 6.0 | 13.0 | 0.00 | 0.07 | 0.01 | 52 | 1021.6 |
| 20260502193601 | 71 | 315 | 7.0 | 13.0 | 0.00 | 0.07 | 0.01 | 50 | 1021.7 |
| 20260502192554 | 71 | 24 | 6.0 | 12.0 | 0.00 | 0.07 | 0.01 | 50 | 1021.7 |
| 20260502191608 | 71 | 355 | 8.0 | 15.0 | 0.00 | 0.07 | 0.01 | 50 | 1021.7 |
| 20260502185517 | 71 | 311 | 7.0 | 15.0 | 0.00 | 0.07 | 0.01 | 51 | 1021.7 |
| 20260502184523 | 70 | 296 | 6.0 | 14.0 | 0.00 | 0.08 | 0.01 | 50 | 1021.9 |
| 20260502183516 | 70 | 302 | 6.0 | 11.0 | 0.00 | 0.09 | 0.01 | 58 | 1022.1 |
| 20260502181421 | 69 | 343 | 5.0 | 11.0 | 0.00 | 0.16 | 0.01 | 59 | 1022.5 |
| 20260502180446 | 68 | 313 | 4.0 | 11.0 | 0.00 | 0.23 | 0.01 | 57 | 1022.8 |
| 20260502170234 | 66 | 343 | 5.0 | 10.0 | 0.00 | 0.27 | 0.01 | 66 | 1023.6 |
| 20260502164226 | 65 | 301 | 5.0 | 10.0 | 0.00 | 0.27 | 0.01 | 68 | 1023.6 |
| 20260502163205 | 64 | 267 | 6.0 | 10.0 | 0.00 | 0.27 | 0.01 | 65 | 1023.7 |
| 20260502162135 | 64 | 283 | 4.0 | 10.0 | 0.00 | 0.27 | 0.01 | 67 | 1023.7 |
| 20260502161118 | 64 | 293 | 5.0 | 10.0 | 0.00 | 0.27 | 0.01 | 67 | 1023.8 |
| 20260502151951 | 61 | 271 | 2.0 | 7.0 | 0.00 | 0.29 | 0.01 | 70 | 1023.5 |
| 20260502150954 | 61 | 319 | 4.0 | 7.0 | 0.00 | 0.30 | 0.01 | 70 | 1023.7 |
| 20260502130547 | 49 | 277 | 0.0 | 3.0 | 0.00 | 0.50 | 0.01 | 96 | 1022.6 |
| 20260502123519 | 47 | 266 | 0.0 | 3.0 | 0.00 | 0.53 | 0.01 | 95 | 1022.3 |
| 20260502122532 | 47 | 327 | 0.0 | 3.0 | 0.00 | 0.53 | 0.01 | 96 | 1022.0 |
| 20260502121504 | 46 | 327 | 0.0 | 0.0 | 0.00 | 0.53 | 0.01 | 95 | 1021.8 |
| 20260502120447 | 46 | 327 | 0.0 | 1.0 | 0.00 | 0.53 | 0.01 | 95 | 1021.7 |
| 20260502115511 | 46 | 327 | 0.0 | 0.0 | 0.00 | 0.54 | 0.01 | 95 | 1021.6 |
| 20260502114436 | 46 | 327 | 0.0 | 0.0 | 0.00 | 0.54 | 0.01 | 95 | 1021.1 |
| 20260502113432 | 46 | 327 | 0.0 | 0.0 | 0.00 | 0.54 | 0.01 | 95 | 1021.0 |
| 20260502111329 | 46 | 327 | 0.0 | 0.0 | 0.00 | 0.59 | 0.01 | 95 | 1020.8 |
| 20260502110335 | 47 | 327 | 0.0 | 0.0 | 0.00 | 0.62 | 0.00 | 94 | 1020.6 |
| 20260502105339 | 47 | 327 | 0.0 | 0.0 | 0.00 | 0.65 | 0.00 | 94 | 1020.4 |
| 20260502104320 | 47 | 327 | 0.0 | 0.0 | 0.00 | 0.68 | 0.00 | 94 | 1020.1 |
| 20260502103248 | 47 | 327 | 0.0 | 0.0 | 0.00 | 0.69 | 0.00 | 94 | 1019.8 |
| 20260502102224 | 48 | 327 | 0.0 | 0.0 | 0.00 | 0.70 | 0.00 | 94 | 1019.5 |
| 20260502100113 | 48 | 327 | 1.0 | 4.0 | 0.00 | 0.72 | 0.00 | 94 | 1019.6 |
| 20260502090912 | 48 | 308 | 1.0 | 3.0 | 0.00 | 0.73 | 0.00 | 94 | 1019.7 |
| 20260502071428 | 49 | 326 | 1.0 | 3.0 | 0.00 | 0.85 | 0.00 | 94 | 1019.4 |
| 20260502070357 | 50 | 326 | 1.0 | 3.0 | 0.00 | 0.86 | 0.00 | 94 | 1019.2 |
| 20260502065351 | 50 | 313 | 1.0 | 4.0 | 0.00 | 0.89 | 0.00 | 94 | 1019.2 |
| 20260502064317 | 50 | 309 | 2.0 | 6.0 | 0.00 | 0.90 | 0.00 | 94 | 1019.3 |
| 20260502063331 | 50 | 302 | 3.0 | 6.0 | 0.00 | 0.92 | 0.00 | 94 | 1019.3 |
| 20260502062316 | 50 | 321 | 2.0 | 4.0 | 0.00 | 0.92 | 0.00 | 94 | 1019.2 |
| 20260502061313 | 50 | 296 | 1.0 | 4.0 | 0.00 | 0.92 | 0.00 | 94 | 1019.2 |
| 20260502060313 | 50 | 295 | 1.0 | 3.0 | 0.00 | 0.92 | 0.00 | 94 | 1019.1 |
| 20260502055338 | 51 | 321 | 2.0 | 4.0 | 0.00 | 0.92 | 0.00 | 94 | 1019.1 |
| 20260502053232 | 51 | 308 | 3.0 | 5.0 | 0.00 | 0.92 | 0.00 | 95 | 1019.2 |
| 20260502052237 | 51 | 315 | 3.0 | 5.0 | 0.00 | 0.92 | 0.00 | 95 | 1019.2 |
| 20260502051205 | 51 | 316 | 2.0 | 5.0 | 0.00 | 0.93 | 0.00 | 94 | 1019.1 |
| 20260502045025 | 51 | 324 | 1.0 | 4.0 | 0.00 | 0.95 | 0.94 | 94 | 1018.8 |
| 20260502041835 | 53 | 309 | 0.0 | 4.0 | 0.00 | 0.98 | 0.94 | 94 | 1018.9 |
| 20260502034611 | 53 | 331 | 4.0 | 7.0 | 0.00 | 0.98 | 0.94 | 94 | 1018.6 |
| 20260502033558 | 53 | 319 | 4.0 | 7.0 | 0.00 | 0.98 | 0.94 | 94 | 1018.7 |
| 20260502032607 | 54 | 319 | 2.0 | 5.0 | 0.00 | 0.98 | 0.94 | 95 | 1018.6 |
| 20260502030434 | 53 | 301 | 1.0 | 3.0 | 0.00 | 0.98 | 0.94 | 95 | 1018.6 |
| 20260502025407 | 53 | 301 | 1.0 | 4.0 | 0.00 | 0.99 | 0.94 | 94 | 1018.6 |
| 20260502024333 | 53 | 301 | 2.0 | 4.0 | 0.00 | 1.01 | 0.94 | 94 | 1018.3 |
| 20260502023309 | 53 | 325 | 1.0 | 4.0 | 0.00 | 1.01 | 0.94 | 94 | 1018.1 |
| 20260502022237 | 53 | 325 | 1.0 | 3.0 | 0.00 | 1.01 | 0.94 | 94 | 1018.0 |
| 20260502021220 | 54 | 325 | 2.0 | 5.0 | 0.00 | 1.01 | 0.94 | 94 | 1017.7 |
| 20260502020214 | 54 | 332 | 3.0 | 8.0 | 0.00 | 1.01 | 0.94 | 94 | 1017.3 |
| 20260502015205 | 54 | 323 | 4.0 | 8.0 | 0.00 | 1.01 | 0.94 | 94 | 1017.1 |
| 20260502014135 | 54 | 323 | 4.0 | 8.0 | 0.00 | 1.01 | 0.94 | 94 | 1016.7 |
| 20260502013156 | 54 | 351 | 3.0 | 7.0 | 0.00 | 1.01 | 0.94 | 94 | 1016.7 |
| 20260502012132 | 54 | 323 | 4.0 | 7.0 | 0.00 | 1.01 | 0.94 | 95 | 1016.7 |
| 20260502011140 | 54 | 318 | 4.0 | 7.0 | 0.00 | 1.01 | 0.94 | 95 | 1016.5 |
| 20260502010130 | 54 | 345 | 4.0 | 7.0 | 0.00 | 1.01 | 0.94 | 95 | 1016.2 |
| 20260502005102 | 54 | 355 | 4.0 | 8.0 | 0.00 | 1.01 | 0.94 | 95 | 1016.0 |
| 20260502004110 | 53 | 329 | 5.0 | 8.0 | 0.00 | 1.01 | 0.94 | 95 | 1015.9 |
| 20260502003036 | 54 | 350 | 5.0 | 11.0 | 0.00 | 1.01 | 0.94 | 95 | 1015.7 |
| 20260502002054 | 53 | 336 | 6.0 | 11.0 | 0.00 | 1.01 | 0.94 | 95 | 1015.5 |
| 20260502001115 | 53 | 332 | 7.0 | 11.0 | 0.00 | 1.01 | 0.94 | 95 | 1015.3 |
| 20260501234954 | 54 | 355 | 7.0 | 14.0 | 0.00 | 1.01 | 0.94 | 95 | 1015.4 |
| 20260501233938 | 53 | 317 | 8.0 | 14.0 | 0.00 | 1.01 | 0.94 | 95 | 1015.2 |
| 20260501232911 | 54 | 338 | 7.0 | 12.0 | 0.00 | 1.01 | 0.94 | 95 | 1015.1 |
| 20260501231847 | 53 | 325 | 8.0 | 12.0 | 0.00 | 1.02 | 0.94 | 95 | 1015.0 |
| 20260501230903 | 53 | 350 | 9.0 | 17.0 | 0.00 | 1.03 | 0.94 | 95 | 1014.7 |
| 20260501225926 | 53 | 355 | 10.0 | 17.0 | 0.00 | 1.05 | 0.94 | 95 | 1014.6 |
| 20260501224900 | 53 | 332 | 11.0 | 21.0 | 0.00 | 1.08 | 0.94 | 95 | 1014.8 |
| 20260501223845 | 53 | 344 | 11.0 | 24.0 | 0.00 | 1.08 | 0.94 | 95 | 1014.7 |
| 20260501222859 | 53 | 331 | 12.0 | 24.0 | 0.05 | 1.09 | 0.94 | 95 | 1014.6 |